User: anonymous   Login
Location: Prague
(50.0830°N, 14.4670°E)
Time: 14:04:14
(UTC+01:00)
Language:

Gurwin Techsat 1B - Orbit

View from above orbital plane
View from above orbital plane
View from above satellite
View from above satellite

Ground track
Ground track

The orbit data is extracted from the following two-line orbital elements,

1 25397U 98043D   21339.81489333 -.00000004  00000-0  17728-4 0  9991
2 25397  98.7929 285.0498 0000846   3.8961 356.2224 14.23723612215871
Epoch (UTC): 05 December 2021 19:33:26
Eccentricity: 0.0000846
inclination: 98.7929°
perigee height: 812 km
apogee height: 813 km
right ascension of ascending node: 285.0498°
argument of perigee: 3.8961°
revolutions per day: 14.23723612
mean anomaly at epoch: 356.2224°
orbit number at epoch: 21587

The dashed part of the orbit path shows where the satellite is in the earth's shadow,  

DLR